Вернуться в каталог

CZ-6A DEB

АктивенPO
NORAD 55552·DEBRIS·🇨🇳 China

Запущен Nov 11, 2022 с Taiyuan Satellite Launch Center

Loading…

Ближайшие Пролёты (ближайшие 24 часа)

TLE

СвежийSource: Space-Track

Эпоха: Sep 14, 2026, 04:02 UTC

1 55552U 22151ZA  26257.16871913  .00006703  00000-0  11152-2 0  9999
2 55552  98.6216 320.8877 0067506  26.5609 333.9028 14.68919554196582

Отслеживайте CZ-6A DEB в реальном времени с AllMySat

Download on the App Store